Track STARLINK-1611 now! 10-day predictions STARLINK-1611 is classified as:
1 46147U 20057AG 22185.84742444 -.00001917 00000-0 -10986-3 0 9998 2 46147 53.0548 229.3651 0001917 53.7252 306.3914 15.06395159104778